Location: Bednik
(45.3500°N, 16.3833°E)
Time: 17:47:28
(UTC+00:00)

Cosmos 220 Rocket - Pass Details

Date: 08 August 2020
Orbit: 575 x 617 km, 74.0° (Epoch: 24 September)

Event Time Altitude Azimuth Distance (km) Brightness Sun altitude
Rises 19:26:21 0° 338° (NNW) 2,796 8.6 -12.1°
Reaches altitude 10° 19:28:34 10° 338° (NNW) 1,893 7.6 -12.4°
Maximum altitude 19:32:48 85° 249° (WSW) 586 3.9 -12.9°
Enters shadow 19:36:03 17° 163° (SSE) 1,513 5.6 -13.4°
